Theta_e
303 303 303 303 304 304 304 304 304 303 303 298 296 300 298 299 297 307 312 317 313 304 294 296 292 291 294 299 298 300 298 297 298 295 298 296 298 296 295 295 293 295 293 295 293 294 291 293 290 293 294 295 297 297 298 298 297 295 289 294 294 304 284 282 284 288 290 293 294 295 295 293 290 291 293 291 287 288 284 283 286 283 285 282 281 279 283
303 303 303 303 304 304 304 304 304 304 303 298 298 297 297 297 298 301 310 320 313 299 286 285 285 292 296 296 296 299 297 296 295 295 296 297 296 295 296 296 296 295 296 293 292 295 284 293 292 291 295 292 300 298 297 299 296 294 294 289 295 284 287 284 280 278 279 283 288 288 292 292 288 286 289 291 291 293 292 291 288 281 283 284 279 274 284
303 303 303 303 303 304 304 304 304 304 304 303 298 295 298 297 302 302 304 313 310 295 296 292 286 291 293 294 294 295 295 297 297 296 296 298 296 296 295 298 298 297 298 294 295 295 292 290 296 294 295 293 300 297 297 299 297 300 303 307 299 287 287 284 278 274 273 272 274 276 281 284 287 292 290 292 292 290 287 281 282 279 283 287 281 281 287
303 303 303 303 303 303 303 304 303 303 304 303 300 300 299 298 286 296 297 302 303 299 301 297 293 289 291 286 293 295 292 296 298 298 296 298 297 295 295 296 296 295 295 294 293 293 297 293 292 291 291 293 296 297 299 300 299 304 305 302 297 288 291 287 283 280 278 280 284 290 290 287 282 287 289 289 291 292 289 285 281 280 282 280 285 286 285
302 303 303 303 303 303 303 304 303 303 303 304 299 300 300 300 293 288 285 294 297 296 297 296 294 288 293 284 293 291 294 295 296 299 293 297 296 296 295 296 293 293 292 292 292 295 292 294 293 292 292 295 295 297 299 299 301 302 299 298 290 287 282 287 288 287 286 287 287 289 289 286 286 286 286 288 288 289 286 281 280 286 281 278 285 288 285
302 302 302 302 303 303 303 303 303 302 303 304 303 295 296 288 292 296 296 290 286 289 289 295 294 296 295 292 296 292 292 295 290 297 298 297 297 292 294 294 294 293 293 294 286 290 290 291 285 294 294 293 296 292 295 295 303 299 295 299 291 286 279 286 288 287 287 288 288 289 288 288 288 287 287 287 288 287 284 283 287 288 281 279 283 287 285
302 302 302 302 302 303 303 303 303 302 302 304 297 290 292 294 294 296 299 290 295 295 296 296 294 293 295 291 293 292 292 291 294 294 295 296 294 296 285 291 293 293 295 293 288 291 283 282 292 291 291 292 291 289 292 295 296 294 293 293 292 286 281 288 288 286 287 288 289 289 288 287 287 287 287 288 287 286 286 286 288 288 286 286 287 286 284
302 302 302 302 302 303 303 303 303 302 301 304 297 292 288 287 287 289 295 295 295 296 294 295 294 291 295 287 291 292 292 291 293 295 293 288 293 295 292 290 292 294 294 293 288 290 292 291 284 292 290 288 291 290 292 289 293 292 292 293 293 288 283 292 289 282 285 288 289 289 288 287 285 286 287 287 287 287 287 287 287 287 286 287 284 282 283
302 302 302 302 302 302 303 303 303 302 302 299 297 293 292 291 295 295 291 288 292 294 295 293 291 288 290 287 291 292 291 290 293 293 296 292 291 294 291 292 292 293 292 290 290 292 292 292 291 292 292 286 294 288 290 293 290 292 292 293 292 289 283 290 286 279 278 287 287 287 288 286 285 284 285 286 285 282 285 283 288 284 283 283 283 283 282
301 302 302 302 302 303 303 303 303 302 302 297 296 293 294 294 296 297 293 285 293 291 292 292 289 284 290 291 292 291 290 292 293 285 294 296 295 294 293 293 291 289 289 288 289 292 293 294 295 293 293 294 293 293 293 292 291 289 289 291 286 288 283 281 281 279 277 285 286 286 285 282 279 278 285 288 287 288 288 288 289 289 287 282 281 281 289
301 302 302 302 302 302 303 303 303 303 300 296 294 295 293 290 289 293 293 286 286 289 288 288 288 290 292 292 291 293 292 292 292 286 286 294 294 296 294 291 289 285 286 289 294 295 295 296 296 295 294 293 292 291 291 293 292 291 290 289 288 288 287 282 284 277 277 285 285 284 278 271 273 285 291 291 287 287 285 284 287 289 289 284 287 287 290
301 302 302 302 302 302 303 303 303 303 301 299 299 297 295 296 295 294 287 284 284 290 289 286 288 290 289 291 291 290 290 290 291 293 290 292 293 295 293 292 289 281 290 295 295 295 296 297 297 295 295 293 292 292 292 290 291 291 290 289 284 285 285 281 283 277 277 280 279 274 269 271 283 289 291 293 291 291 289 289 289 289 289 290 288 288 288
302 302 302 302 302 302 303 303 303 303 303 300 299 297 298 299 295 292 288 286 283 285 284 286 290 290 291 291 291 290 292 293 293 294 293 292 291 293 293 291 288 289 294 293 294 293 289 287 288 289 290 291 291 291 290 289 289 291 289 290 287 281 281 281 281 280 279 276 275 267 268 283 289 289 290 292 291 289 287 285 286 288 288 288 287 288 289
302 302 302 302 302 302 302 303 303 303 303 302 298 299 299 298 294 292 288 285 284 286 287 286 288 288 290 290 290 290 292 291 291 294 292 294 292 292 295 293 292 293 293 293 291 290 284 284 279 281 283 285 285 284 289 290 290 289 289 290 290 287 284 282 279 280 272 273 272 274 281 281 283 282 284 286 283 284 283 278 282 287 287 287 286 287 288
302 302 302 302 302 302 302 302 303 303 303 303 300 300 299 298 297 294 295 290 284 285 286 280 285 288 290 289 289 287 287 287 287 286 292 297 294 293 294 293 294 294 294 292 286 288 283 282 278 278 279 279 274 276 287 284 290 290 290 289 289 288 283 281 279 278 279 274 273 273 272 269 277 286 290 291 292 291 290 284 280 287 288 289 287 286 287
303 302 302 302 302 302 302 302 303 303 303 303 300 299 300 300 299 297 295 290 287 280 283 290 291 290 288 288 289 287 283 282 285 286 288 290 291 293 293 293 296 295 294 291 289 285 282 279 278 277 274 278 283 281 277 285 284 290 290 290 292 291 290 285 282 279 278 277 272 271 269 272 281 284 288 290 290 290 290 282 278 285 287 288 288 286 287
303 303 302 302 302 302 302 302 303 303 303 303 298 299 298 300 298 296 294 293 288 281 290 291 293 291 285 285 288 286 287 281 285 280 281 283 287 289 291 293 295 295 292 288 286 284 281 280 282 280 281 285 280 279 284 283 281 283 288 289 289 286 283 283 280 279 279 278 275 274 278 277 283 287 287 288 290 290 281 273 274 284 286 287 287 286 286
302 303 302 302 302 302 302 302 302 303 303 303 299 297 298 300 300 299 296 292 286 283 288 292 290 285 284 286 286 290 292 289 288 288 285 288 288 288 290 290 287 294 295 284 284 281 280 280 278 279 277 286 286 285 274 282 279 281 280 282 281 282 282 282 278 278 278 279 273 274 276 283 288 287 289 289 292 286 274 271 278 285 286 287 286 286 286
302 302 302 302 301 301 302 302 302 303 303 303 300 299 299 301 301 300 295 292 288 281 289 294 294 291 292 294 290 290 291 290 287 282 283 283 285 291 291 292 291 281 289 282 284 280 280 280 285 282 279 282 286 279 284 280 279 284 284 280 281 281 280 281 280 276 275 275 274 275 278 283 287 288 289 290 286 275 274 283 287 288 287 288 287 286 286
302 302 302 302 302 301 302 302 302 303 303 303 301 295 298 301 301 300 295 289 288 286 288 290 292 289 292 289 286 285 287 288 287 284 282 279 288 291 286 282 287 287 284 284 280 282 280 279 281 285 279 280 283 288 281 282 286 282 282 284 281 281 278 277 277 279 277 275 272 273 270 282 290 290 287 288 280 280 286 288 290 290 289 287 286 286 286
302 302 302 302 301 302 302 302 303 303 303 303 302 297 297 298 299 299 299 296 289 283 284 293 294 292 292 291 291 291 290 286 286 284 285 286 289 286 279 279 282 283 279 280 276 279 281 280 281 281 284 283 283 283 277 280 283 287 286 284 282 287 278 279 279 281 275 275 273 274 279 283 291 288 280 284 286 288 288 287 284 287 287 286 285 286 287
302 302 302 302 301 302 302 302 303 303 303 303 302 298 295 299 300 300 300 298 289 285 286 293 296 293 295 294 293 292 292 292 294 293 287 283 288 288 287 289 287 285 286 285 280 280 282 281 284 280 276 279 285 278 281 275 274 282 287 285 276 284 281 281 276 282 278 277 279 286 287 286 288 288 288 288 289 289 288 287 286 285 285 287 285 286 287
301 302 302 302 301 302 302 303 303 303 303 303 301 295 295 298 296 300 298 291 292 293 296 294 296 296 296 296 297 297 296 295 297 295 293 288 282 286 286 285 285 290 289 288 282 281 281 280 277 281 278 279 278 276 279 278 277 281 278 284 281 285 285 285 281 279 284 285 285 286 286 286 286 286 287 287 287 288 288 287 285 286 287 286 286 287 287
302 302 302 301 302 302 303 303 303 303 303 303 302 297 296 298 297 297 295 293 287 285 286 289 284 282 287 290 293 295 296 294 295 296 298 295 283 282 287 289 291 289 286 288 287 284 282 282 282 282 276 280 281 276 274 274 276 279 279 280 284 283 283 281 276 280 277 272 283 283 283 284 285 286 288 289 289 288 288 287 287 287 287 288 288 287 287
301 301 301 302 302 302 303 303 303 302 302 303 301 301 301 299 297 297 291 284 284 284 282 282 283 291 294 295 295 293 293 296 296 298 298 296 291 285 284 289 292 288 285 288 289 285 283 279 279 279 275 282 282 275 280 277 277 281 274 278 281 278 284 279 281 279 274 275 281 283 285 284 286 286 285 285 287 288 288 288 288 288 288 288 289 289 288
301 301 302 302 302 302 302 303 303 302 302 302 302 297 297 296 298 298 295 293 290 287 283 282 286 296 295 292 290 293 296 296 295 296 299 297 295 292 291 293 293 296 292 292 289 283 282 280 280 280 277 278 285 278 277 280 278 282 278 276 283 283 285 276 280 277 279 282 284 284 285 285 285 287 287 287 287 287 288 289 289 289 289 288 289 289 289
301 301 301 301 302 302 302 302 303 302 302 302 300 299 299 299 299 296 292 291 285 283 283 282 286 291 293 292 294 295 295 294 294 293 294 295 296 296 294 293 291 290 289 286 287 285 283 281 281 278 281 281 284 282 282 279 280 277 276 281 284 281 277 280 278 273 273 275 279 282 276 276 282 285 286 287 288 288 288 288 288 288 288 289 288 289 290
300 301 301 301 302 302 302 302 303 303 302 302 300 300 301 299 298 298 297 296 291 282 282 282 283 288 292 292 294 293 293 292 292 293 291 292 294 295 293 291 290 289 287 284 281 282 282 279 280 282 281 282 281 278 283 281 282 279 279 279 283 279 281 279 274 274 273 281 284 284 283 282 284 285 287 288 289 288 288 288 288 288 289 289 288 288 288
300 300 301 301 302 302 302 302 302 302 303 302 299 299 299 302 299 298 298 299 297 290 286 286 287 285 282 287 294 291 293 293 294 292 292 292 292 293 291 291 289 290 289 286 284 283 281 282 284 281 280 284 280 277 279 274 275 274 279 284 284 284 286 284 283 283 283 285 285 285 284 281 285 287 287 288 290 289 288 289 289 289 288 288 288 288 287
300 300 301 301 302 303 303 302 302 302 302 299 297 295 291 292 297 296 298 300 298 295 285 282 280 282 291 293 291 292 291 293 293 294 293 290 290 290 289 289 289 290 288 283 283 279 281 282 283 287 288 288 278 279 275 276 274 278 284 286 287 287 287 287 286 283 282 287 286 286 285 285 286 287 288 289 291 291 288 289 288 288 288 289 288 288 288
300 300 301 301 302 303 303 302 301 302 301 298 294 286 284 282 290 298 299 299 299 295 287 286 282 285 284 291 291 289 292 291 290 290 291 290 289 289 290 288 287 288 282 284 283 282 282 279 281 284 288 288 284 279 276 275 273 277 283 286 285 286 286 286 287 287 286 286 287 287 287 287 287 288 287 288 289 289 288 288 289 291 290 289 288 288 287
301 301 301 301 302 302 303 302 301 301 298 295 290 289 289 290 293 298 299 300 299 293 286 282 280 282 280 284 291 292 292 292 293 292 290 292 289 290 289 290 284 290 286 281 281 280 280 280 280 282 284 287 285 279 278 276 273 276 284 286 287 286 286 287 286 286 287 288 287 284 283 285 286 284 283 288 289 290 288 288 288 287 289 289 288 288 288
301 301 301 301 302 302 303 303 302 300 296 299 301 300 299 299 300 300 301 298 296 290 290 283 279 280 279 284 291 292 294 291 290 288 287 291 289 289 285 289 288 288 293 284 279 278 281 281 281 279 282 285 280 279 278 273 277 283 285 286 285 285 286 287 287 287 287 287 286 282 280 282 284 287 289 289 290 288 287 287 288 288 288 287 287 286 286
301 301 301 301 302 302 303 303 303 301 300 296 293 295 299 300 299 300 300 297 293 292 288 283 278 278 279 287 283 288 293 286 286 288 281 289 290 286 283 285 286 281 284 280 283 282 282 281 280 281 283 280 281 277 273 278 284 285 284 284 285 285 286 286 285 285 285 286 286 287 287 287 289 288 288 288 287 287 288 288 288 287 286 286 286 286 286
301 301 301 301 302 302 303 302 297 296 293 296 297 297 299 300 299 299 299 296 286 283 282 282 283 279 279 280 281 285 294 287 282 286 282 287 290 285 285 280 282 279 281 288 281 280 279 280 283 279 275 280 278 275 276 280 283 284 283 283 285 284 284 283 284 285 285 286 287 287 287 287 285 285 285 286 286 287 287 287 287 286 285 285 285 286 285
301 302 302 302 302 302 299 299 296 295 294 294 295 300 302 303 301 299 300 300 294 284 281 282 282 280 280 275 276 282 292 286 288 287 286 284 285 290 286 282 276 281 286 282 278 281 279 284 280 275 280 276 275 278 281 283 283 283 284 284 284 284 284 284 283 285 285 286 288 288 287 286 285 285 286 287 287 287 287 286 287 287 286 285 284 285 285
302 302 302 302 301 299 294 292 299 298 294 295 298 302 302 302 302 300 298 296 297 296 285 281 280 281 282 279 281 284 288 279 285 282 283 282 280 281 282 280 277 280 280 279 279 277 281 286 280 275 276 274 277 283 285 285 284 283 284 285 285 286 285 285 286 285 284 286 287 286 285 285 286 287 286 286 286 286 286 286 286 285 284 283 283 283 284
302 303 299 297 296 288 288 290 296 299 302 301 301 297 296 296 286 287 289 286 291 293 286 287 281 282 286 282 279 288 286 281 285 280 281 283 280 279 282 279 279 280 273 276 279 285 282 280 277 275 274 280 283 284 284 284 285 284 286 285 285 286 286 286 286 284 283 282 282 282 283 285 286 286 285 285 285 284 284 286 286 285 285 284 284 284 284
301 299 299 297 292 287 287 293 302 301 297 299 297 289 285 288 285 282 282 284 285 282 285 283 281 284 283 281 283 289 286 280 280 282 279 285 280 277 280 274 279 278 275 275 276 285 274 276 277 276 274 278 281 283 285 285 287 287 287 286 286 286 286 285 287 285 284 284 284 283 283 282 283 284 286 285 285 284 284 284 284 284 284 285 284 285 284
297 292 287 287 287 289 297 302 303 299 297 288 289 286 281 284 281 279 285 280 280 283 283 280 285 285 286 283 281 280 288 284 278 277 278 280 286 277 280 278 279 276 271 272 275 283 275 271 274 274 272 278 279 284 285 284 285 285 285 286 287 287 287 286 287 288 287 288 287 285 286 285 287 286 286 284 283 281 281 283 283 283 284 285 285 285 284
294 292 290 286 292 294 296 298 298 296 289 284 283 283 281 279 282 283 282 279 279 280 285 284 285 284 286 286 285 281 290 289 287 286 282 278 284 282 278 273 281 274 272 271 279 280 278 275 274 272 272 280 281 283 284 284 284 285 285 286 286 285 286 287 287 288 289 288 286 286 287 288 288 288 287 286 284 281 280 281 282 283 285 285 285 285 286
294 292 293 296 296 296 296 294 290 286 285 285 280 277 280 280 282 282 282 276 278 282 284 283 280 282 283 286 285 285 284 290 285 282 281 276 282 278 275 278 279 272 269 275 279 278 276 270 271 271 277 282 284 284 284 283 284 284 285 286 286 286 286 286 286 288 289 288 287 287 287 288 288 286 285 285 285 283 282 282 282 284 285 286 286 287 286
299 299 299 295 293 288 289 284 286 285 277 278 276 275 279 276 278 277 279 283 285 283 282 290 287 289 289 289 286 288 284 288 283 282 280 277 283 281 277 276 275 269 273 279 278 274 272 270 270 272 282 283 285 284 283 284 284 285 285 286 286 287 287 287 287 286 287 288 288 288 288 288 287 286 285 284 283 283 283 283 283 283 283 284 285 285 285
297 296 292 289 286 286 286 276 285 281 279 279 276 271 275 275 277 280 278 280 283 283 285 282 284 284 280 286 283 283 283 285 285 283 281 282 280 277 276 272 272 278 281 276 274 271 271 275 275 277 283 285 286 283 282 283 283 284 284 286 287 287 287 286 287 286 286 286 286 286 287 286 286 285 285 284 283 283 283 283 284 284 284 284 284 284 285
290 287 286 284 282 284 281 271 283 280 274 277 280 277 278 275 278 281 280 285 286 284 288 287 286 286 283 286 286 285 283 280 285 278 276 280 276 277 274 272 277 278 274 270 272 272 274 271 276 280 283 283 283 282 282 283 284 283 283 285 286 286 286 285 285 285 284 285 284 285 284 285 284 283 283 283 284 284 283 282 283 283 282 283 283 283 284
286 284 283 278 273 279 280 276 278 277 281 282 280 281 281 282 283 283 287 289 287 286 285 285 285 285 281 285 281 280 283 283 279 279 281 281 275 272 278 281 280 273 272 272 269 268 269 274 277 280 283 283 281 280 281 283 285 285 285 285 285 286 286 286 285 285 285 285 285 285 285 284 284 283 282 283 284 284 283 284 283 283 283 282 282 283 284
286 286 285 283 277 280 283 276 278 280 282 283 285 286 286 286 289 288 291 289 286 287 286 287 286 285 280 281 281 282 283 283 279 281 281 276 275 278 282 276 272 273 268 266 266 268 271 275 279 281 283 281 280 280 281 283 284 284 284 287 286 287 287 286 286 285 285 286 286 286 285 284 284 284 284 283 284 284 283 284 284 284 283 282 283 283 283
282 285 284 276 274 280 278 280 285 286 287 287 287 288 288 289 287 286 289 289 288 287 286 285 282 283 282 285 284 280 281 282 278 279 281 279 281 277 275 274 272 273 272 269 270 273 276 278 280 282 283 282 281 281 282 283 284 285 285 286 286 288 288 287 287 286 286 286 285 285 285 285 285 285 284 284 283 284 284 284 284 284 284 283 283 282 282
286 283 280 280 281 281 281 283 283 281 283 285 287 286 286 286 285 287 290 290 289 288 288 285 283 282 279 283 281 280 278 281 275 276 281 278 273 270 270 268 270 268 273 275 275 276 279 282 284 284 284 282 280 283 282 283 284 284 285 285 286 286 288 288 288 288 287 287 287 286 286 285 285 285 283 284 283 282 284 284 283 283 283 283 282 281 281
285 284 285 282 281 282 283 284 282 281 283 283 284 284 285 284 285 288 290 288 288 287 285 285 285 281 280 280 276 278 278 280 279 280 277 274 275 276 274 270 271 269 271 275 279 282 283 283 284 284 285 284 284 284 283 284 284 284 285 286 287 286 287 290 290 290 288 287 287 288 287 287 286 285 284 283 283 284 283 284 284 282 282 283 282 281 281
288 285 284 285 282 281 282 278 278 279 280 281 283 284 284 284 285 286 291 290 289 285 283 280 282 281 279 279 277 273 276 281 278 275 274 274 277 275 273 272 273 276 278 280 281 282 283 284 284 283 284 284 284 284 284 285 285 285 285 286 287 287 288 287 289 290 290 290 289 288 288 287 287 286 285 285 285 284 282 282 283 282 281 282 283 281 280
284 281 281 284 286 285 284 284 284 283 283 284 284 285 284 284 286 289 292 289 286 282 280 283 281 279 277 275 277 280 282 279 275 276 274 276 278 273 273 274 277 280 282 283 283 284 284 283 283 283 284 284 284 284 284 286 286 285 285 287 287 287 287 288 289 288 289 289 289 288 288 288 288 285 284 283 283 283 281 280 281 281 281 281 281 281 280
Wind_Speed
27 28 29 30 31 30 30 30 28 25 24 12 9 6 3 2 5 13 11 3 10 4 2 2 3 4 5 7 12 12 12 9 7 6 2 5 3 3 2 3 3 3 3 2 3 4 2 3 3 7 9 6 2 8 10 10 7 4 3 6 5 6 1 2 2 3 5 8 9 11 10 8 7 3 2 1 0 3 6 4 5 3 2 2 2 2 2
27 28 29 30 30 30 30 31 31 25 19 7 7 3 2 4 4 6 7 0 1 3 3 3 4 4 7 9 10 9 9 9 10 6 3 2 3 4 2 4 2 2 5 4 2 5 2 3 4 2 6 7 7 2 6 11 7 6 1 2 3 1 2 4 0 2 5 7 6 7 9 7 3 3 4 3 3 5 3 4 4 3 1 1 2 1 0
28 29 30 29 29 30 30 31 32 30 23 12 3 2 3 5 3 5 5 2 2 4 3 5 4 5 5 5 6 5 6 8 7 4 2 2 3 4 3 2 1 3 2 4 5 3 4 2 1 4 4 5 9 7 4 9 6 5 4 8 2 2 1 2 1 2 1 1 2 3 5 7 3 2 6 5 5 7 7 3 3 2 4 5 1 1 2
29 29 29 30 30 30 31 30 31 31 30 21 2 2 3 2 3 4 5 5 1 3 3 3 2 4 3 4 3 4 5 5 7 5 4 1 5 4 4 6 5 3 5 4 3 6 1 2 1 3 3 2 3 7 10 9 7 5 7 6 4 0 0 1 2 3 5 4 3 2 6 4 4 8 7 5 5 5 3 3 1 1 1 3 1 3 3
30 29 29 30 29 30 30 31 31 33 32 26 2 3 3 3 2 4 7 7 3 4 3 3 3 4 5 4 2 4 2 4 5 6 3 7 6 6 7 3 1 2 4 2 2 3 7 8 6 6 8 2 3 5 12 9 9 8 4 6 2 1 1 1 2 2 3 3 7 8 6 5 4 5 7 7 6 2 4 1 4 1 4 5 1 2 1
28 29 28 29 29 29 30 29 32 33 32 32 7 3 6 3 3 2 1 3 4 8 4 7 7 8 6 1 4 6 6 1 2 3 1 3 6 4 5 9 6 8 4 1 1 2 4 4 5 8 7 6 3 3 5 4 3 5 0 5 3 2 1 3 1 3 4 5 7 7 8 8 7 6 5 5 5 8 6 4 5 2 2 7 2 1 1
28 28 28 29 28 29 29 30 30 33 33 24 6 7 4 2 3 2 7 5 7 7 7 8 6 5 10 1 7 4 6 7 6 1 3 6 4 8 4 9 13 15 16 12 5 5 0 2 2 3 5 4 3 3 5 3 5 3 1 0 2 2 1 2 1 3 3 5 6 7 7 4 5 5 6 5 6 3 4 4 5 2 3 3 2 1 3
28 28 28 27 28 28 28 29 29 31 32 16 8 10 6 6 5 6 8 3 5 7 12 8 6 5 11 5 7 8 6 9 6 6 8 2 3 8 7 13 13 11 14 12 7 6 5 3 3 4 5 5 3 1 2 0 2 2 2 1 2 4 1 3 3 3 3 5 7 8 9 7 6 6 6 5 4 5 4 1 5 7 5 8 7 7 6
28 28 28 26 26 27 27 28 28 28 25 9 8 5 6 3 3 3 5 8 6 5 5 3 7 7 9 6 7 8 14 12 12 8 13 12 9 3 5 10 9 12 14 13 9 9 8 6 5 5 3 3 3 2 2 4 2 3 3 2 1 2 1 2 2 3 3 2 4 6 6 6 6 4 5 3 5 4 4 4 2 4 1 3 7 8 3
27 27 27 25 26 26 26 26 27 26 20 6 5 7 8 5 3 3 3 2 6 3 6 6 6 7 6 8 5 6 13 14 11 3 9 15 14 12 12 9 9 9 10 10 9 11 10 9 8 4 4 4 5 5 4 4 2 1 3 0 3 1 2 1 1 0 2 2 5 7 8 8 8 5 7 6 2 4 3 5 9 8 3 8 6 1 0
27 26 26 26 26 26 26 26 25 25 15 10 6 5 8 8 7 8 4 3 7 8 8 11 9 7 8 12 13 13 11 12 11 7 4 11 12 13 9 11 6 2 6 6 9 9 10 9 8 4 4 5 5 5 4 6 4 3 1 1 1 2 1 1 2 2 1 1 3 4 5 3 2 1 5 10 5 4 5 4 10 10 8 1 2 6 7
27 26 25 25 25 25 25 25 25 24 17 8 4 3 5 7 5 3 3 6 7 10 8 8 9 9 12 10 8 9 9 6 6 7 6 6 8 9 8 8 6 3 6 7 8 10 12 9 8 6 8 7 7 7 8 6 6 3 3 3 2 3 1 3 2 2 0 2 5 4 2 5 1 6 10 7 9 9 9 12 13 11 11 9 11 10 8
26 26 25 26 25 25 25 24 25 24 22 11 6 4 5 7 4 4 3 2 7 9 7 9 12 13 14 13 9 7 9 9 9 5 5 5 6 6 4 5 5 4 6 7 11 10 8 4 6 6 7 6 5 8 9 8 8 7 5 2 2 3 4 2 1 3 1 2 1 1 4 1 5 6 9 6 4 7 5 10 14 13 10 7 8 9 10
23 24 25 26 25 25 24 24 24 24 25 17 8 7 5 8 6 6 4 3 5 6 6 7 13 12 11 11 10 8 9 8 6 3 3 2 2 3 2 6 3 3 4 5 5 4 3 2 2 3 3 2 2 3 3 6 8 9 9 9 5 5 3 4 1 2 2 3 3 7 2 5 10 5 6 5 4 3 2 2 6 9 8 10 5 7 8
24 25 26 27 26 25 24 24 22 23 23 22 7 7 5 7 4 2 3 0 2 3 7 6 7 8 7 9 11 8 7 7 9 7 5 1 1 4 3 5 1 3 3 2 2 1 1 0 1 0 2 1 0 2 1 3 1 6 8 8 9 8 6 2 5 2 4 2 0 2 1 2 1 2 5 5 4 2 1 1 1 8 10 8 8 8 8
23 24 26 27 26 24 24 23 22 22 21 22 9 7 4 6 4 2 2 1 1 3 6 5 5 6 5 6 8 6 5 4 6 6 5 4 4 6 7 4 1 2 1 3 1 1 0 2 1 0 1 1 2 1 1 2 2 0 4 4 1 5 8 7 7 1 2 2 2 2 1 1 1 4 6 6 6 7 2 2 1 5 6 8 7 7 6
23 24 25 26 26 24 24 23 22 22 20 20 9 7 3 8 6 6 4 3 3 4 5 9 5 4 4 6 6 6 7 5 5 3 4 5 5 10 8 6 1 2 2 2 2 1 1 0 0 1 2 2 2 1 2 3 3 4 6 6 8 8 5 5 4 1 2 1 2 2 0 2 2 4 5 7 5 6 6 2 1 7 6 5 5 8 7
23 23 26 26 26 25 23 23 23 21 21 22 11 5 5 6 6 6 4 4 2 4 5 9 8 6 6 5 4 3 2 4 6 3 1 5 8 10 12 5 3 3 1 1 1 1 1 0 0 0 1 3 3 3 1 3 1 3 2 3 3 4 3 5 1 1 1 5 1 2 1 1 3 6 9 8 4 2 1 2 3 4 5 5 4 4 5
22 23 23 26 25 24 22 22 22 21 20 20 12 7 3 6 8 7 3 4 4 4 7 8 8 7 6 6 5 5 7 7 5 3 5 5 3 11 11 5 7 3 8 5 4 2 2 2 2 2 2 4 4 2 2 2 2 4 3 4 4 2 2 2 3 2 0 1 3 2 2 2 3 6 8 4 2 4 1 3 4 3 5 3 4 4 4
23 22 23 25 24 23 22 21 21 21 20 20 12 2 7 5 6 7 7 4 3 1 4 6 7 9 6 8 7 7 6 7 6 4 4 3 7 12 7 6 8 5 8 5 6 3 2 3 2 1 2 1 1 1 1 2 2 1 2 2 2 2 2 1 1 1 2 2 2 1 0 1 6 4 3 7 3 1 3 2 2 4 5 10 8 7 7
22 22 23 23 24 24 22 21 21 20 19 19 13 4 5 4 6 6 3 1 1 1 3 3 6 6 4 5 4 5 4 5 4 5 4 4 7 3 3 3 6 4 3 4 4 4 4 5 6 1 2 0 3 1 1 0 2 4 4 1 3 2 1 1 3 2 1 1 1 2 2 4 2 4 3 2 2 4 9 8 8 8 8 7 5 6 6
22 21 22 23 24 23 21 21 21 19 19 19 16 6 4 6 6 7 8 1 1 1 2 6 1 2 2 3 5 2 5 5 6 3 2 5 5 6 3 7 7 3 2 2 2 2 4 2 2 2 3 3 4 3 6 4 1 0 0 3 1 6 3 1 2 1 3 1 1 4 3 2 5 3 2 6 10 9 5 6 4 5 5 4 4 5 7
22 22 22 23 23 22 20 20 20 18 19 19 13 3 3 8 8 10 7 4 1 2 2 2 2 1 1 7 8 5 6 4 5 4 2 1 4 4 7 6 5 3 2 3 3 1 3 3 3 2 3 3 3 4 4 1 1 5 5 5 5 4 3 2 3 2 2 0 3 7 10 9 7 5 6 9 8 6 7 6 5 4 3 3 4 5 5
20 21 22 23 22 20 20 20 19 18 19 18 10 3 5 5 5 7 7 2 4 3 2 6 4 3 4 6 6 3 7 4 3 3 1 1 3 3 2 3 1 3 2 5 2 3 3 1 3 1 1 3 4 3 3 3 5 4 3 4 2 3 3 4 1 2 4 2 10 11 7 5 6 9 9 8 8 6 5 5 3 3 4 4 5 4 5
20 21 22 22 20 20 20 19 18 18 18 18 15 7 4 1 4 6 5 4 4 3 0 1 2 3 3 2 4 3 1 1 4 3 2 1 5 3 1 1 1 1 2 4 3 5 2 2 3 2 2 2 4 2 2 2 2 4 3 2 2 3 5 4 1 2 1 1 8 7 4 4 6 8 7 7 7 8 6 4 4 5 4 4 5 5 5
19 20 20 20 19 19 18 18 18 17 17 19 13 5 5 3 4 4 2 1 2 0 0 0 1 0 5 4 4 5 4 5 4 4 2 2 7 5 1 1 2 2 2 1 3 4 3 2 1 1 3 2 3 1 1 2 4 3 2 4 0 1 2 1 2 2 4 3 10 10 7 6 7 9 7 6 7 7 8 7 7 7 8 8 8 5 5
18 19 20 19 19 18 17 17 17 17 17 16 8 6 6 4 5 7 5 4 2 1 3 3 2 3 3 3 2 4 4 4 3 1 4 7 1 3 2 0 2 2 4 4 2 1 1 1 1 1 1 1 1 2 0 2 2 3 2 4 4 4 4 2 5 3 3 4 4 5 5 5 9 7 5 7 7 7 6 6 7 6 6 7 7 7 5
17 18 20 19 19 19 17 17 15 16 16 15 8 6 5 3 4 5 5 5 4 1 2 3 3 1 2 4 3 4 2 2 3 3 4 4 5 1 1 3 3 1 0 2 3 2 2 3 2 0 0 2 2 3 3 3 2 2 1 2 2 5 2 3 2 1 2 4 3 2 1 3 4 5 6 7 5 5 6 6 5 5 5 5 5 7 8
17 18 18 20 20 19 18 17 16 14 15 10 6 6 5 1 3 5 5 5 3 2 1 3 2 1 1 1 2 4 5 4 2 2 3 3 4 3 3 2 2 2 3 1 1 1 1 3 1 0 0 1 2 2 3 2 1 1 0 1 5 3 4 5 3 1 2 1 3 4 2 4 4 5 4 5 5 5 5 4 4 4 5 4 5 6 6
17 18 18 19 19 19 18 16 16 16 16 6 2 1 0 1 2 5 5 4 3 2 1 3 2 2 1 1 1 2 3 3 5 2 3 2 1 1 5 2 1 2 2 2 2 2 1 1 1 0 2 1 1 0 0 1 2 1 4 6 5 6 4 3 3 1 2 1 2 3 4 4 3 4 5 4 4 4 4 4 5 4 5 6 7 6 10
18 18 18 18 18 18 17 15 14 16 13 6 2 0 1 1 2 5 7 5 3 2 1 1 4 3 3 0 1 3 3 3 2 2 1 3 4 2 2 4 3 1 1 0 1 1 0 1 1 0 1 0 1 0 1 1 3 1 2 3 3 1 3 2 1 2 3 3 4 4 4 3 4 5 4 5 5 5 4 4 5 7 8 6 7 9 8
19 18 17 17 17 17 16 15 12 10 6 4 3 1 0 1 3 7 8 5 4 1 0 2 2 1 1 1 2 3 3 1 3 0 1 1 1 1 1 1 2 3 0 1 1 1 1 2 1 2 3 1 2 0 1 1 3 1 1 1 2 3 2 1 4 4 3 4 5 4 2 3 2 3 3 3 4 5 5 5 5 6 6 5 7 8 10
19 18 17 17 17 17 16 15 13 7 4 5 6 7 6 6 7 7 5 4 1 1 1 1 3 1 1 2 1 4 2 1 3 1 0 2 1 1 1 3 2 2 2 2 0 1 0 1 0 1 1 3 2 1 2 3 3 3 2 3 1 2 1 1 1 2 3 4 3 1 4 3 3 2 1 3 3 6 5 5 7 5 6 8 9 9 8
19 18 17 16 16 17 16 16 14 12 7 1 2 2 4 6 4 5 3 1 2 2 0 0 1 0 3 1 2 2 3 2 2 1 1 2 1 1 0 1 1 1 0 2 1 0 1 0 4 2 2 1 1 0 1 3 1 5 4 4 4 4 4 4 4 5 4 4 3 2 1 1 2 1 2 4 5 4 4 5 6 7 7 7 8 7 6
20 19 17 16 14 15 17 12 4 1 2 4 1 1 2 4 4 4 1 1 2 1 1 2 1 2 3 2 1 2 2 2 2 1 1 2 3 1 1 0 1 1 1 1 1 2 2 3 0 1 3 2 2 1 2 3 3 4 3 4 4 4 3 3 2 2 3 2 2 2 3 3 2 2 3 4 5 5 5 5 5 6 6 6 7 7 5
20 20 17 15 16 11 5 3 2 1 2 1 2 2 4 4 4 3 4 3 1 0 0 1 2 3 1 3 3 1 2 2 2 1 2 1 2 1 1 1 2 1 1 3 2 1 1 0 1 2 0 1 3 2 1 3 4 3 3 3 3 2 0 1 2 3 3 3 3 4 4 3 4 4 4 5 6 6 6 6 7 6 6 6 7 7 6
21 20 19 14 6 1 2 2 2 2 2 4 6 9 11 4 2 1 1 1 2 1 1 0 1 2 1 1 1 0 2 2 1 2 2 2 1 1 0 1 2 1 1 1 1 2 4 2 2 1 1 3 2 4 7 5 5 2 3 3 2 1 2 3 2 2 3 5 4 5 4 3 3 3 5 5 5 4 4 5 5 6 7 7 7 7 7
23 21 5 1 1 1 1 0 0 3 4 7 5 4 0 2 0 1 1 1 2 3 2 1 3 3 1 1 2 1 1 2 4 2 1 0 2 2 0 1 1 1 2 1 2 1 2 1 2 3 4 3 4 4 5 6 5 4 5 4 3 2 1 1 2 2 2 2 3 3 3 3 4 3 4 4 3 3 3 3 3 4 3 2 3 4 6
15 4 1 2 1 1 1 1 2 4 3 4 1 0 1 1 0 1 2 2 1 1 2 3 3 2 0 1 1 1 2 1 3 1 1 1 1 2 2 2 0 1 1 1 2 3 1 1 1 1 4 2 5 3 3 5 6 5 4 4 3 1 1 2 2 1 0 2 1 2 1 2 2 3 2 2 2 1 2 2 3 2 1 2 3 3 4
4 5 3 3 2 2 6 3 2 2 1 1 1 1 1 1 1 2 1 1 1 1 2 3 3 2 1 0 1 1 2 1 1 2 1 4 1 1 0 1 1 1 1 1 2 1 1 1 0 1 1 1 3 2 2 3 5 4 3 3 3 2 1 1 1 1 3 3 3 3 2 3 3 3 1 1 2 1 3 2 2 1 0 2 4 3 3
4 4 3 2 3 3 4 7 6 2 1 1 0 1 0 1 1 1 1 1 1 1 2 1 1 0 1 0 3 1 1 0 0 0 0 2 1 1 1 0 1 1 0 1 0 0 0 1 1 2 3 5 4 3 4 2 4 5 3 4 4 3 1 1 1 3 3 4 2 1 3 3 2 1 1 2 3 3 3 3 2 1 1 2 3 4 3
3 3 4 6 7 7 5 3 1 1 1 1 0 1 1 1 0 1 1 1 1 0 1 0 1 0 1 1 0 1 1 1 0 0 0 2 0 1 1 1 0 0 1 1 1 2 1 2 1 3 3 4 5 4 4 4 4 4 5 5 3 1 2 2 3 2 3 4 3 3 3 2 1 1 1 3 4 2 2 3 2 2 2 3 4 3 3
15 10 5 3 2 2 1 1 2 1 0 0 1 1 1 1 1 2 2 1 0 1 1 0 1 2 2 2 1 0 1 1 1 0 1 1 0 0 0 1 0 2 2 1 1 1 2 2 3 2 6 6 7 5 5 2 4 5 4 4 3 4 3 2 2 2 3 4 3 3 2 2 2 2 1 1 3 1 0 1 2 2 3 3 3 3 2
6 4 2 1 1 3 1 1 0 1 0 1 1 2 2 2 2 1 1 1 2 1 2 2 2 3 1 1 1 0 1 2 1 0 1 1 1 1 0 1 2 2 1 1 1 3 3 1 4 4 7 6 5 4 3 3 3 5 4 4 4 5 4 2 2 1 3 2 2 1 0 1 3 1 0 0 1 1 1 1 1 1 2 3 3 3 3
3 1 1 1 1 1 2 2 1 1 2 1 2 3 2 3 3 2 4 1 1 1 1 2 2 3 1 1 0 1 1 0 1 1 1 1 1 0 0 2 1 1 1 3 1 3 1 3 4 2 7 4 6 4 4 2 4 5 4 3 5 5 5 4 4 4 4 4 3 3 4 4 3 2 2 2 1 1 2 2 2 3 3 3 3 3 3
1 2 2 2 3 2 1 1 0 1 1 1 3 4 4 6 6 3 1 1 1 4 5 4 5 5 3 1 1 1 0 1 0 1 1 1 1 2 2 1 0 2 1 1 2 3 5 5 6 2 8 6 5 3 3 1 2 4 4 5 4 5 5 5 4 4 5 4 4 4 5 4 4 4 3 1 1 1 3 3 2 1 1 2 3 3 4
2 1 1 1 2 2 1 1 2 1 2 4 4 4 4 5 0 1 0 2 5 4 5 4 5 4 1 2 2 1 1 1 1 0 2 1 1 1 1 1 1 1 1 2 2 3 3 5 2 4 5 4 5 5 4 4 4 4 4 6 5 4 5 5 5 4 4 5 5 4 4 3 4 3 5 3 1 2 4 4 2 1 1 1 1 2 3
1 1 1 1 2 1 2 3 2 5 5 6 7 7 5 4 5 4 3 3 4 3 2 3 1 2 1 0 3 3 2 0 1 2 2 1 1 1 0 1 2 1 1 2 4 3 5 5 3 7 7 8 6 6 3 1 0 0 3 4 5 6 6 5 5 5 4 4 4 4 4 4 4 3 2 4 3 3 4 4 3 1 1 1 1 2 3
1 1 1 1 1 1 2 4 7 8 9 8 7 6 6 7 6 6 3 0 3 3 3 4 2 2 1 0 2 0 2 1 1 1 0 1 1 2 1 2 1 3 2 3 6 6 7 6 4 4 5 4 4 3 3 2 3 3 2 3 4 4 6 7 6 5 5 4 4 4 4 4 3 4 3 5 5 4 4 4 4 3 2 2 2 2 3
1 2 2 2 2 3 4 6 6 7 6 5 6 5 1 2 2 3 4 4 2 3 3 3 3 2 0 1 1 0 2 1 1 1 2 3 2 1 2 5 4 3 3 2 4 3 2 2 2 4 6 4 5 4 4 4 3 1 1 1 4 4 4 5 5 6 5 4 4 5 5 4 4 3 3 5 6 5 4 4 4 4 3 2 2 2 3
1 2 3 3 5 4 2 3 3 6 7 7 6 6 5 4 2 3 1 1 0 2 2 1 1 2 0 0 1 1 2 1 2 3 3 3 1 2 3 5 4 4 6 6 6 3 3 3 0 4 5 6 6 4 4 3 3 3 3 4 3 4 5 4 6 7 6 5 5 6 6 5 3 2 4 6 5 5 5 3 3 4 4 2 0 1 2
2 3 4 4 7 8 7 7 6 7 8 8 8 7 4 4 1 2 2 2 2 2 2 1 1 1 1 3 2 2 1 0 2 1 3 3 2 4 4 4 4 5 4 4 4 5 7 5 4 4 6 6 5 4 3 2 2 3 3 3 2 3 3 5 4 5 5 5 5 5 6 5 4 3 4 4 3 4 7 4 4 4 5 4 2 2 4
Wind_Direction
356 355 354 353 350 348 345 344 345 352 350 3 345 319 307 282 274 300 315 154 117 111 196 224 208 219 242 257 253 258 269 275 264 270 311 276 201 211 202 276 294 269 221 275 309 310 276 239 203 151 175 109 49 349 3 19 62 71 21 59 333 15 75 26 294 300 307 320 318 308 314 318 340 345 358 58 130 167 163 173 195 174 225 128 110 190 251
356 355 355 353 352 349 346 345 343 347 7 340 308 308 290 302 285 303 304 70 328 124 193 240 251 248 246 239 262 260 267 257 254 245 303 290 314 309 299 267 353 353 15 338 312 29 18 1 311 332 109 116 100 268 1 47 33 46 335 102 255 59 300 127 264 357 338 333 326 340 351 31 43 291 320 352 51 51 119 77 23 38 260 151 110 253 200
357 356 356 355 353 350 348 347 344 341 350 355 295 289 294 280 245 232 269 253 137 202 173 208 250 265 262 260 254 300 273 261 269 281 268 334 337 353 319 341 100 284 324 313 331 193 162 355 304 269 120 142 167 129 141 90 84 52 56 61 123 106 227 76 115 176 167 288 68 345 338 340 312 346 345 349 30 56 32 25 13 77 312 29 95 149 257
357 357 357 356 354 352 350 349 345 343 339 351 349 252 302 325 349 313 351 356 319 272 316 290 245 276 293 330 274 275 286 307 321 335 279 345 357 319 333 337 357 353 12 348 347 326 280 182 342 351 47 165 139 148 104 81 96 103 52 51 59 100 40 110 154 163 197 214 247 318 359 343 0 321 325 319 7 41 75 109 86 207 206 6 252 147 218
358 358 358 358 356 354 352 351 349 345 341 341 73 287 193 293 24 11 340 325 337 7 301 337 333 289 263 253 333 284 276 309 299 17 319 44 13 339 303 291 345 3 9 344 337 333 334 356 8 4 356 345 83 100 106 103 104 85 70 87 74 66 25 311 14 282 243 290 307 320 325 294 296 326 308 329 334 13 28 35 256 162 56 327 249 82 57
359 359 359 359 357 356 354 353 351 348 343 339 338 36 13 10 344 37 53 247 300 344 345 4 336 334 336 77 349 3 342 360 353 265 347 10 2 15 338 358 1 332 275 246 346 345 311 351 10 4 36 351 44 81 101 99 93 84 76 110 113 141 151 263 228 283 283 283 286 286 287 290 288 277 279 301 340 354 349 290 259 257 222 222 255 4 332
1 1 0 360 358 356 357 356 355 352 344 339 49 29 9 13 320 331 2 357 319 294 295 329 314 336 352 346 2 358 36 0 1 23 316 335 15 19 16 345 16 12 24 36 13 2 188 352 13 51 350 25 336 35 40 79 141 118 32 56 142 82 223 244 274 300 341 335 341 335 317 309 312 314 319 305 316 319 14 355 345 321 242 228 226 100 58
3 2 2 1 359 358 358 358 359 356 345 336 49 50 4 11 353 330 335 314 288 340 341 314 347 27 9 33 353 351 31 4 333 360 14 49 11 20 31 14 10 9 38 42 50 4 25 27 72 339 30 343 18 6 114 159 339 50 172 142 1 102 287 85 48 41 349 347 333 316 306 301 294 305 316 335 5 11 344 60 25 40 22 15 41 73 65
4 3 3 1 360 358 359 360 360 360 350 21 9 39 26 307 324 317 307 325 314 325 277 10 50 42 6 21 0 8 23 32 359 59 42 35 15 39 64 36 9 37 40 38 19 357 347 358 354 358 7 1 319 48 292 15 1 349 5 48 356 88 219 60 67 50 316 315 309 315 343 346 354 344 338 19 39 34 357 54 319 89 13 46 49 50 14
4 4 2 1 0 359 360 1 1 3 356 30 342 13 351 338 305 318 279 284 288 312 13 34 47 33 8 358 11 38 29 28 26 14 10 26 29 17 40 33 57 34 29 23 347 338 328 321 320 325 318 315 323 322 334 349 9 48 348 56 113 141 108 79 97 357 237 275 341 346 0 8 2 0 358 346 41 83 55 47 34 14 29 61 43 314 133
5 4 3 2 1 360 360 0 2 6 8 17 355 338 7 5 327 328 342 354 330 7 29 26 22 31 358 23 9 17 35 33 34 35 358 10 17 4 50 41 49 71 36 334 323 319 311 297 286 306 309 302 300 309 315 310 306 309 277 28 3 67 73 216 148 153 200 39 351 16 25 1 251 291 17 37 14 30 54 43 47 33 53 134 78 43 37
5 3 1 2 0 360 360 359 0 3 9 355 316 302 12 332 315 310 343 23 8 11 36 39 12 11 2 10 15 0 15 23 48 51 44 12 1 357 32 44 54 30 346 313 336 324 305 287 274 253 236 248 265 274 276 284 294 265 234 208 166 180 157 239 157 105 193 39 36 27 283 231 197 33 32 27 36 37 80 63 42 38 30 33 44 41 41
4 4 2 2 360 358 358 358 359 359 3 357 354 330 360 353 344 345 338 6 37 12 18 20 9 8 357 359 6 9 2 22 38 34 61 37 356 358 20 46 35 0 331 339 328 326 338 326 322 305 307 307 270 239 235 235 244 256 279 242 146 168 182 192 72 143 61 70 126 138 226 253 85 65 32 3 52 28 42 48 32 15 21 26 42 35 30
3 2 1 0 359 357 356 358 358 358 358 1 352 333 348 8 11 354 16 22 17 36 2 19 8 356 350 8 353 3 19 20 346 2 40 38 333 331 22 54 46 323 359 343 320 320 341 359 342 7 314 294 285 302 247 247 219 216 225 240 217 199 175 117 238 107 153 170 157 211 329 346 6 0 3 18 39 358 55 98 39 8 9 17 26 38 32
0 0 0 360 358 357 355 355 357 358 357 356 342 332 350 14 17 351 302 331 342 1 35 35 343 339 347 20 5 17 7 4 1 345 359 56 358 350 27 82 77 354 333 348 332 343 231 277 333 13 278 157 10 248 242 243 245 222 213 213 206 204 191 205 125 276 123 135 56 348 24 265 340 8 349 356 359 38 11 106 87 13 359 7 22 30 25
359 358 359 359 358 356 353 353 354 357 1 355 350 343 327 7 348 318 302 246 272 33 359 10 360 348 8 12 357 21 349 15 2 342 360 1 359 310 61 352 153 55 339 290 247 284 320 79 280 72 239 274 278 10 286 317 299 53 17 355 42 72 100 123 131 159 61 75 124 186 194 225 220 313 348 338 326 345 323 80 77 335 342 1 8 15 20
358 357 357 358 358 356 353 351 351 355 358 4 347 331 328 8 7 348 333 337 51 69 349 10 360 16 16 351 351 10 358 21 7 27 350 335 356 358 360 338 317 132 303 14 307 12 7 157 265 265 307 317 318 257 316 3 339 344 7 4 36 43 20 50 80 86 124 131 147 238 76 106 337 318 337 332 327 16 60 8 283 333 330 340 13 6 6
357 357 357 357 357 356 353 349 349 354 358 358 356 327 312 353 8 352 348 6 18 62 9 17 21 32 16 1 14 349 12 15 4 339 350 325 18 354 336 325 3 350 336 59 289 352 313 40 27 275 264 347 5 24 19 352 346 311 30 4 7 13 355 44 74 154 175 170 235 87 68 308 360 326 309 333 333 36 64 240 315 291 309 326 21 352 335
355 356 355 357 356 355 352 348 346 351 357 1 351 339 322 342 1 17 359 11 24 46 352 32 27 45 20 19 22 7 25 34 20 9 352 347 3 336 314 360 11 347 11 358 353 19 23 321 26 15 13 357 22 40 332 22 353 356 13 28 11 13 71 313 63 32 40 157 122 199 111 253 249 276 289 308 20 58 277 246 214 251 299 315 341 325 311
353 354 354 355 355 354 351 347 346 349 353 357 1 313 277 315 7 31 19 3 339 11 21 24 29 43 31 34 9 13 12 30 17 33 24 325 307 334 358 9 355 13 3 14 24 346 49 5 17 27 11 24 334 251 7 252 304 26 40 69 113 207 72 299 59 267 48 51 61 20 294 263 190 261 349 32 84 202 203 241 290 313 355 8 354 3 359
352 352 353 354 354 353 350 345 345 346 349 355 358 325 327 353 2 359 8 67 314 349 349 347 53 51 48 57 27 358 62 69 38 25 342 299 300 312 59 3 359 358 23 355 2 348 358 355 341 352 321 70 231 102 265 52 32 14 85 52 86 41 105 263 58 22 99 40 54 90 157 265 316 45 72 308 97 8 22 31 13 15 26 3 358 357 359
351 351 352 353 353 352 349 345 344 344 348 356 357 342 333 327 347 347 324 249 162 159 192 248 141 127 89 121 151 146 64 16 101 116 25 331 331 29 48 29 26 9 19 2 15 356 8 329 321 28 341 315 352 25 342 26 11 7 360 109 59 342 81 40 123 303 87 37 115 217 197 90 68 81 81 45 45 44 40 52 43 25 355 355 358 334 334
352 352 352 353 353 352 349 346 344 344 347 355 360 1 317 317 343 340 345 4 335 324 349 358 332 123 309 35 16 47 87 116 102 86 89 69 344 17 48 22 2 336 16 47 43 312 270 350 300 335 345 8 2 318 332 58 16 23 4 27 115 27 40 17 75 340 62 137 90 54 35 20 15 31 51 58 36 29 42 36 11 341 328 335 328 309 313
351 351 351 352 351 350 349 347 345 344 346 351 353 310 315 301 327 350 355 2 52 333 352 7 47 353 356 27 337 47 17 28 110 124 195 104 59 343 19 65 328 355 1 339 357 344 300 282 264 345 55 331 22 20 43 359 55 325 357 11 56 22 17 55 76 300 62 287 33 34 7 357 26 38 25 25 28 32 24 360 348 323 314 317 307 306 317
350 351 351 350 350 350 350 350 348 347 347 351 349 320 295 295 13 10 25 21 344 32 97 312 6 299 29 66 330 39 98 134 61 86 198 61 73 88 50 288 303 82 296 297 347 17 359 348 345 2 24 330 59 319 14 70 327 21 26 285 36 342 30 29 53 53 104 217 52 13 358 358 33 35 21 6 357 357 354 335 326 321 323 338 344 353 348
347 348 349 348 348 349 350 351 349 347 348 346 349 335 324 358 2 358 351 22 267 124 305 102 251 70 355 41 20 308 16 27 53 358 329 347 112 135 169 327 333 175 210 339 30 32 337 347 350 329 38 331 59 44 7 179 215 285 351 278 49 314 45 30 15 35 314 13 27 7 18 24 18 358 352 2 354 344 342 354 358 358 357 348 342 349 342
341 344 346 346 345 345 347 349 348 346 345 346 337 328 328 340 29 16 30 347 8 44 8 6 337 32 347 3 17 296 72 53 87 315 13 354 32 116 95 54 318 351 41 13 338 329 305 284 356 318 79 227 50 274 257 327 359 2 349 296 329 42 40 333 43 26 17 62 330 31 28 314 326 334 343 348 342 348 341 360 342 353 355 343 336 332 334
336 339 342 343 343 342 342 342 344 343 343 341 329 310 306 354 34 30 20 17 49 118 271 295 322 284 332 299 335 323 69 167 72 357 57 344 329 117 129 219 201 114 99 63 352 9 342 357 296 190 128 331 31 334 352 312 344 326 302 334 52 107 53 65 84 109 273 314 355 59 203 247 261 308 334 341 344 355 347 342 341 349 338 324 330 323 317
331 333 335 339 340 339 338 337 336 338 335 331 302 299 282 334 32 48 17 339 351 328 289 259 274 358 57 291 358 1 337 327 122 118 63 4 335 9 276 247 246 161 105 107 189 230 218 245 218 49 131 210 107 292 15 327 286 288 8 60 69 103 90 90 107 106 250 319 356 349 357 304 313 323 334 336 359 16 352 340 334 325 320 328 331 303 310
326 328 330 333 335 336 336 336 335 336 335 311 280 302 11 332 350 36 13 347 324 324 356 15 353 256 214 234 328 344 314 6 42 26 100 319 289 284 285 298 222 127 137 177 167 249 255 298 267 141 145 129 115 219 27 270 318 76 2 57 43 50 39 98 112 120 255 324 325 331 340 327 327 360 352 13 20 349 323 315 308 326 348 350 332 0 19
327 328 329 329 330 331 332 334 336 338 337 323 300 334 29 38 307 6 347 331 317 360 272 219 240 299 337 199 192 245 268 57 30 307 179 207 256 277 338 39 330 119 144 280 81 254 115 262 319 181 94 193 121 159 212 298 295 75 355 83 79 85 58 46 7 47 30 10 20 19 8 348 356 351 353 7 353 335 324 328 1 15 357 350 29 32 21
326 329 328 327 325 326 328 328 335 343 327 355 42 70 215 215 259 310 310 300 316 329 306 310 302 143 212 305 271 210 77 70 273 185 360 101 342 29 23 88 262 336 353 134 167 60 254 235 267 252 129 176 104 229 40 310 292 140 221 42 48 70 28 33 44 27 24 52 35 2 353 331 360 12 312 326 328 343 15 7 15 8 359 18 24 24 19
323 326 327 325 322 321 321 319 321 326 287 292 270 261 258 268 290 293 294 326 346 225 241 300 254 269 248 242 241 14 340 275 254 102 276 252 170 180 231 195 237 258 38 59 83 216 227 312 191 311 215 130 127 175 180 220 213 127 94 91 54 67 317 73 72 63 58 48 61 1 293 308 326 46 58 286 357 27 6 18 17 7 18 17 10 7 2
319 322 322 321 317 315 315 313 308 308 282 187 320 185 206 221 276 286 322 287 261 261 109 200 282 7 267 30 60 290 310 340 306 12 16 233 232 115 244 1 194 161 283 132 244 52 295 189 242 178 50 294 190 106 248 247 170 77 54 32 41 32 29 22 33 32 10 349 9 327 324 11 345 38 26 36 44 26 8 22 17 10 14 14 7 3 356
315 315 314 310 309 305 303 300 322 336 300 265 173 162 169 183 221 261 286 335 14 344 344 280 345 322 339 325 94 267 277 333 307 23 287 250 153 150 67 49 353 105 268 43 323 195 214 222 212 57 245 180 142 218 211 223 78 57 50 44 48 31 18 22 350 343 331 347 337 359 26 3 30 53 52 60 51 27 6 14 24 3 6 10 9 354 352
311 308 307 306 297 292 295 267 195 257 241 279 279 197 184 247 249 222 203 239 189 210 297 283 335 306 322 318 1 288 13 307 325 312 235 230 310 37 143 164 312 277 155 141 221 220 217 24 67 239 167 257 236 186 153 87 78 59 68 85 71 79 208 252 288 343 334 331 14 50 6 9 51 59 70 55 49 30 14 8 12 13 16 12 1 349 348
306 302 303 299 281 172 232 234 201 147 252 238 280 312 296 284 202 165 206 237 212 185 229 276 304 267 70 283 234 269 36 352 269 293 352 16 294 276 337 32 224 225 25 296 252 251 247 188 138 220 176 226 229 159 131 133 125 116 101 106 93 43 18 5 352 353 9 355 24 48 4 37 52 39 64 60 49 37 9 6 357 20 19 13 1 354 348
303 301 290 260 204 234 243 351 292 257 281 294 307 328 10 101 340 244 178 216 196 159 238 203 240 251 225 180 290 216 105 276 19 337 325 37 339 287 197 168 230 81 266 264 258 293 138 143 189 192 251 221 138 145 129 122 129 120 102 95 78 49 360 300 311 53 26 351 14 31 5 24 58 60 65 65 63 33 351 332 32 42 24 2 348 336 340
304 283 205 205 179 314 18 292 251 287 271 256 159 352 268 174 196 229 196 187 93 248 221 177 233 234 177 261 306 133 124 173 323 268 295 199 110 293 34 20 325 91 284 17 300 63 347 289 271 209 269 98 101 88 87 99 94 94 111 121 129 164 271 282 98 79 277 155 178 123 133 80 54 62 59 89 91 66 281 309 78 59 7 310 308 314 332
344 338 342 320 31 348 284 266 172 278 258 324 209 129 261 207 155 261 164 202 204 200 118 225 215 204 159 136 128 296 24 38 292 296 355 310 105 152 249 276 280 70 263 264 240 105 152 262 303 331 339 64 121 167 124 106 106 115 124 152 136 133 73 18 332 114 107 132 138 149 147 106 72 78 64 134 166 242 274 288 145 139 277 290 284 291 314
358 331 326 346 325 314 304 317 306 263 213 240 290 272 146 279 224 235 324 271 229 232 180 179 163 218 93 172 161 228 294 103 273 244 94 262 236 109 34 264 7 317 260 257 290 190 245 280 247 244 217 196 159 160 133 159 135 161 157 132 101 103 84 290 152 117 114 99 96 131 99 99 127 156 184 236 213 207 222 211 178 169 243 267 283 274 257
322 262 282 291 286 277 290 283 199 267 249 194 141 260 217 224 264 295 175 206 251 81 3 55 301 46 128 146 217 98 142 170 133 148 83 304 281 120 229 254 326 170 281 254 325 281 307 264 249 268 179 162 163 166 177 181 171 135 129 112 129 142 128 96 106 140 149 149 159 137 114 114 134 209 262 279 292 230 195 170 171 183 235 264 258 261 247
294 276 242 254 286 272 197 264 214 168 130 352 65 323 237 267 206 213 254 211 176 138 194 168 182 119 106 33 3 113 169 167 121 290 124 249 325 116 248 244 107 255 241 288 284 290 271 262 271 256 152 167 178 185 184 163 145 142 136 131 139 119 112 134 163 173 152 139 131 136 170 186 202 215 236 285 327 353 214 151 177 183 222 242 277 293 260
276 267 261 186 262 266 177 273 215 55 297 166 156 226 231 256 272 217 261 247 114 239 154 153 170 98 250 153 126 328 50 15 26 37 286 237 209 236 181 243 216 255 348 271 252 250 241 259 227 243 147 156 141 153 153 169 146 123 132 149 139 131 133 151 144 134 94 89 141 165 105 260 263 234 190 200 261 4 2 64 38 76 23 21 356 339 339
325 300 234 248 233 281 52 316 294 121 222 211 195 241 229 246 261 226 199 226 137 243 95 127 114 117 159 134 155 205 101 151 48 88 261 49 330 324 194 252 272 341 286 279 278 284 298 276 297 30 143 146 152 166 181 194 147 147 163 159 141 141 150 168 177 175 178 186 195 202 215 238 240 215 214 230 230 135 93 88 43 51 21 15 358 349 338
305 323 327 336 321 298 173 265 325 285 248 211 234 220 241 251 263 313 145 193 79 54 42 33 33 40 354 81 127 220 233 138 182 225 222 146 158 250 226 284 4 292 274 259 262 245 234 237 266 212 163 163 168 156 185 222 181 157 158 140 161 161 174 173 196 192 185 185 204 208 220 234 231 202 199 191 187 151 103 99 88 80 69 44 8 354 339
276 274 263 303 273 267 203 249 250 243 303 295 287 284 267 263 85 29 168 111 84 87 81 82 77 98 78 325 355 321 186 127 204 273 59 303 232 293 94 98 257 203 259 259 247 261 280 277 271 133 142 140 171 186 195 209 209 182 154 152 178 179 176 180 197 208 197 182 205 215 237 231 254 229 173 161 132 125 133 123 116 109 93 76 20 10 356
301 307 311 289 266 248 243 247 275 286 281 283 300 304 309 337 349 335 43 91 113 92 88 72 49 60 330 345 121 231 287 223 228 234 168 236 294 261 303 251 231 211 186 225 245 247 264 260 184 177 177 172 174 192 201 168 41 156 149 158 172 172 173 180 192 223 200 195 216 225 229 231 225 270 211 158 131 115 130 128 114 81 39 57 26 25 23
299 304 286 277 268 289 297 336 336 301 296 289 289 307 346 1 350 356 333 46 86 105 104 106 104 86 240 181 262 257 273 123 227 252 145 167 149 211 173 241 209 249 226 204 239 245 247 261 200 172 163 164 185 188 172 202 196 214 172 176 180 184 177 182 190 204 210 206 202 228 241 230 215 226 182 126 127 131 137 143 135 110 81 65 49 43 36
282 243 218 231 288 277 263 282 274 278 288 317 342 324 9 42 346 315 323 353 48 73 65 80 90 100 239 52 289 200 240 200 236 263 225 224 205 222 213 253 224 227 255 268 268 273 319 3 82 96 156 183 190 210 204 214 181 175 187 210 174 185 183 177 189 196 201 203 202 224 246 255 266 260 187 153 156 158 131 115 128 123 92 54 60 62 58
208 249 250 226 235 263 336 285 295 306 307 300 301 303 316 316 263 258 202 217 264 86 92 173 180 140 105 224 223 244 237 137 223 226 223 239 217 233 225 241 232 216 235 234 246 277 299 311 332 171 178 177 204 204 197 211 218 203 190 200 208 190 194 195 182 182 199 202 206 220 239 245 242 247 163 149 152 132 123 135 138 134 138 137 145 128 115
219 233 241 220 222 241 247 259 263 254 261 273 284 289 307 289 295 333 13 42 84 119 236 148 132 134 147 204 220 238 323 265 238 230 250 231 198 233 240 232 259 255 258 269 285 287 290 279 268 181 181 194 192 184 192 201 227 234 200 187 232 253 205 198 199 184 180 190 197 207 234 246 252 213 157 124 133 127 136 175 178 157 155 164 188 187 166